Weather in Gorodishchi

Russia / Vladimir Oblast     55°52′02″N   39°05′11″E
temp.,
°C
wind,
m/s
gust,
m/s
humid.,
%
clouds,
%
prec.,
mm/h
press.,
hPa
HPBL,
m
27 february, sat
sat2700:00+1wnw6149098 0.0 999993
03:00+1wnw7149899 0.3 1000935
06:00−6nnw71388100 0.8 1001833
09:00−10nnw5118899 0.8 1005598
12:00−8nnw498776 0.0 1008545
15:00−6nnw488779 0.0 1009561
18:00−8nnw359275 0.0 1011115
21:00−10nnw269572 0.0 1013144
28 february, sun
sun2800:00−12nnw239684 0.0 101450
03:00−13nnw229657 0.0 101532
06:00−11nnw139655 0.1 101596
09:00−9nw119577 0.5 1015118
12:00−5nw129097 0.2 1015354
15:00−2nw249098 0.3 1016512
18:00−3n129699 0.1 101721
21:00−4nne119799 0.2 101921
1 march, mon
mon100:00−5nnw119598 0.0 102023
03:00−8nw119787 0.1 102221
06:00−8w1195100 0.0 102221
09:00−6sw119692 0.0 102375
12:00−2wsw239379 0.0 1022390
15:00−1wsw369078 0.1 1022576
18:00−1wsw389591 0.1 1020448
21:00−1sw4119395 0.1 1017387
2 march, tue
tue200:00+1w51293100 0.1 1014665
03:00+1w51293100 0.1 1012762
06:00+1w61297100 0.3 1008639
09:00+1wnw51194100 0.4 1008800
12:00+1nw5119596 0.4 1008928
15:00+1nw6119295 0.7 10081075
18:000nw51289100 0.3 1009908
21:00−2nw4129594 0.4 1011589
3 march, wed
wed300:00−2nw6139396 0.1 1012851
03:00−5nw4139296 0.2 1013825
06:00−5nnw5138997 0.1 1014786
09:00−4nnw5128996 0.1 1017780
12:00−1nw588498 0.0 1017928
15:00−1nw698599 0.2 10181090
18:00−2wnw41090100 0.1 1018536
21:00−3wnw4109496 0.1 1018358